Showing default

OPS 5712 (P/L 153), 2874

Orbit data source: Space-Track

OPS 5712 (P/L 153), 2874 is an American payload satellite in LEO that was launched on Wed, 31 May 1967 UTC via a THOR SLV-2 AGENA D launch vehicle from the Air Force Western Test Range (AFWTR). Payloads include a variety of satellites, spacecraft, and rockets equipped with specific instruments for various scientific and technological missions. These include communications satellites like Starlink; space stations such as the ISS; scientific satellites like the Hubble; Earth observation satellites from companies like Planet Labs, Umbra, and HawkEye 360; GPS; miniature CubeSats for education and research; and military/defense satellites.

Loading next visibility...
OPS 5712 (P/L 153) details
Identifier
2874, 1967-053H
Orbit
LEO
Last TLE update13 hours ago
Origin
Flag of USNRO/NRL (US)
ManufacturerNRL
MissionOperational Defense Sigint
Bus & MotorNRL MULTI, Unknown motor
Mass77 kg wet, 77 kg dry
Launch date (UTC)
1967-05-31 (58 years ago)
Launch vehicle
THOR SLV-2 AGENA D
Launch site
Air Force Western Test Range (AFWTR)
Object type
Payload
Rocket body
Debris
Shape & HBREll + 1 Ant, 18 m
Radar Cross Section1.399 m², Medium (>0.1 m² and < 1m²)

Expand to show TLE details & history

TLE from 13 hours ago
0 OPS 5712 (P/L 153)
1  2874U 67053H   24356.01581005  .00000089  00000-0  10240-3 0  9999
2  2874  69.9720 199.4334 0008068 203.0066 157.0680 13.96688445931417
Epoch: 2024-12-21T00:22Z
Definitive object data (Epoch: 2024-12-21T00:22:45.988Z)
Latitude0.00002°
Longitude103.66876°
Altitude913.01 km
Speed7.393 km/s
True Right ascension13h 17m 44s
True Declination0° 00' 00"
Sunlit
Object was in daylight at TLE epoch
Visualization TLE readout
Latitude-69.94588°
Longitude5.87718°
Altitude928.367 km
Speed7.388 km/s
Apparent Right ascension02h 32m 34s
Apparent Declination-63° 21' 43"
Sunlit
Object is in daylight
Visualization observer readout
Local Sidereal Time12:43:18
Azimuth205.572° SW
Elevation-61.533°
Doppler factor1
Orbital elements
Apogee altitude909.205 km
Perigee altitude897.456 km
Semi-major axis7,281.467 km
Eccentricity0.0008068
Inclination69.972°
RAAN199.4334°
Arg. of periapsis203.0066°
True anomaly157.10399°
Mean anomaly157.068°
Eccentric anomaly157.086°
Mean motion3.49313 °/min
BSTAR0.0001024
Orbital period103.06 mins
Loading maneuver chart data...
Loading historical data...
Loading historical data...
Loading historical data...
Loading historical data...
Loading historical data...
Loading historical data...
Loading historical data...

OPS 5712 (P/L 153) Visibility forecast

Observer location: undefined°, undefined

Span
Click to sort rows by Start time (UTC) header in descending order
Start Az.
Max El. time (UTC)
Max El. Az.
Max El.
End time (UTC)
End Az.
9 mins2024-12-21 14:14:18.483Z159.373° S2024-12-21 14:19:18.483Z98.549° ESE25.61°2024-12-21 14:23:18.483Z50.715° ENE
9 mins2024-12-21 16:00:18.483Z237.852° WSW2024-12-21 16:04:18.483Z299.935° NW34.174°2024-12-21 16:09:18.483Z9.225° NNE
6 mins2024-12-21 23:17:18.483Z18.668° NNE2024-12-21 23:20:18.483Z55.335° ENE18.064°2024-12-21 23:23:18.483Z88.424° E
10 mins2024-12-22 01:01:18.483Z330.439° NNW2024-12-22 01:06:18.483Z223.886° SW43.606°2024-12-22 01:11:18.483Z165.359° S
|